FALCON 9 DEB (46178 NORAD) Tracking and Keplerian Element Data

This shows tracking and keplerian element data for the satellite.

Feedback or suggestion? Click here.




ElementValue
Catalog46178
NameFALCON 9 DEB
Epoch Orbit388
Epoch Day255.63982375
Epoch Year2020
RAAN316.0678
Inclination52.9863
Eccentricity0.0014819
Argument of Perigee128.5774
Mean Anonmoly231.6602
Mean Motion16.40766285
Decay Rate0.06167929
L11 46178U 20057BP 20255.63982375 .06167929 12270-4 35721-3 0 9994
L22 46178 52.9863 316.0678 0014819 128.5774 231.6602 16.40766285 3883

Live tracking and technical data element details for FALCON 9 DEB (NORAD 46178). FALCON 9 DEB can be tracked NOW for your location showing map with azimuth and elevation plus other details from your city location.

Track the satellite on the map from your city or location and see movement details for azimuth, elevation, latitude, longitude, range, height, and movement on the map or in text.







IsCatalogInMostPopularTable: catalog: 46178, numindb: 3
Update: records affected: 1



GetName: 46178 FALCON 9 DEB

Hit Count: updated at: Sat, 26 Sep 2020 15:53:03 GMT